This is the latest recevied weather packets stored in our database for station/object SV9TNF-2. If no packets are shown the sender has not sent any weather packets the latest 10 day(s).
| Time | Temp. | Humidity | Pressure | Rain* | Wind** | Luminosity | Snow |
|---|---|---|---|---|---|---|---|
| 1777542890 | 23.89° C | 39% | 1022 hPa | 0 mm | 1.79 m/s, 106° | - | - |
| 1777542590 | 25.56° C | 37% | 1022 hPa | 0 mm | 3.13 m/s, 32° | - | - |
| 1777542290 | 25.56° C | 33% | 1022 hPa | 0 mm | 1.79 m/s, 101° | - | - |
| 1777541990 | 25.56° C | 34% | 1022 hPa | 0 mm | 1.79 m/s, 130° | - | - |
| 1777541690 | 25.56° C | 33% | 1022 hPa | 0 mm | 1.79 m/s, 227° | - | - |
| 1777541390 | 23.89° C | 35% | 1022 hPa | 0 mm | 1.34 m/s, 95° | - | - |
| 1777541090 | 23.33° C | 34% | 1022 hPa | 0 mm | 2.24 m/s, 91° | - | - |
| 1777540789 | 23.33° C | 32% | 1022 hPa | 0 mm | 3.58 m/s, 101° | - | - |
| 1777540489 | 23.89° C | 35% | 1022 hPa | 0 mm | 2.24 m/s, 94° | - | - |
| 1777540189 | 24.44° C | 34% | 1022.4 hPa | 0 mm | 1.79 m/s, 78° | - | - |
| 1777539889 | 25.56° C | 32% | 1022.4 hPa | 0 mm | 1.34 m/s, 82° | - | - |
| 1777539589 | 24.44° C | 35% | 1022.4 hPa | 0 mm | 0.45 m/s, 75° | - | - |
| 1777539289 | 24.44° C | 34% | 1022.4 hPa | 0 mm | 1.34 m/s, 90° | - | - |
| 1777538988 | 24.44° C | 37% | 1022.4 hPa | 0 mm | 0.89 m/s, 74° | - | - |
| 1777538688 | 24.44° C | 36% | 1022.4 hPa | 0 mm | 1.34 m/s, 76° | - | - |
| 1777538388 | 25° C | 41% | 1022.4 hPa | 0 mm | 0.45 m/s, 77° | - | - |
| 1777538088 | 25° C | 34% | 1022.4 hPa | 0 mm | 0.45 m/s, 146° | - | - |
| 1777537788 | 25° C | 37% | 1022.4 hPa | 0 mm | 0.89 m/s, 129° | - | - |
| 1777537489 | 25.56° C | 34% | 1022.4 hPa | 0 mm | 1.34 m/s, 91° | - | - |
| 1777537188 | 25.56° C | 36% | 1022.4 hPa | 0 mm | 0 m/s | - | - |
| 1777536888 | 24.44° C | 42% | 1022.4 hPa | 0 mm | 1.79 m/s, 91° | - | - |
| 1777536589 | 23.89° C | 39% | 1022.4 hPa | 0 mm | 2.68 m/s, 87° | - | - |
| 1777536288 | 23.89° C | 39% | 1022.4 hPa | 0 mm | 0.89 m/s, 83° | - | - |
| 1777535988 | 22.78° C | 36% | 1022.4 hPa | 0 mm | 0.45 m/s, 84° | - | - |
| 1777535687 | 22.78° C | 39% | 1022.4 hPa | 0 mm | 0.89 m/s, 91° | - | - |
* Rain latest hour (hover to see other rain measurements)
** Current wind speed in m/s (hover to see current wind gust speed)